Location: Bodest
(46.3000°N, 22.5667°E)
Time: 02:02:50
(UTC+00:00)

FENGYUN 1C DEB - Pass Details

Date: 04 April 2023
Orbit: 806 x 916 km, 98.8° (Epoch: 29 May)

Event Time Altitude Azimuth Distance (km) Brightness Sun altitude
Rises 19:44:43 0° 224° (SW) 3,540 ? -25.9°
Reaches altitude 10° 19:49:17 10° 257° (WSW) 2,593 ? -26.5°
Maximum altitude 19:50:59 11° 274° (W) 2,499 ? -26.7°
Drops below altitude 10° 19:52:41 10° 292° (WNW) 2,584 ? -26.9°
Sets 19:57:15 0° 326° (NW) 3,508 ? -27.5°
